[[{"header":{"parameterUnit":"m.s-1","parameterCategory":2,"la1":30.2991,"la2":30.254,"lo1":-89.0895,"lo2":-89.0444,"dy":0.0017,"dx":0.0017,"nx":28,"ny":28,"refTime":"2026-02-27T03:00:00:Z","depth":"0","parameterNumber":2,"parameterNumberName":"U-component_of_CURRENTS"},"data":[0,0,0,0,0,0,0,0,0,0,0,0,0,0,0,0,0,0,0,0,0,0,0,0,0,0,0,0,0,0,0,0,0,0,0,0,0,0,0,0,0,0,0,0,0,0,0,0,0,0,0,0,0,0,0,0,0,0,-0.3353,-0.3354,0,-0.3411,-0.3412,-0.3412,-0.3432,-0.3433,-0.3433,-0.3433,-0.3499,-0.35,-0.3502,0,0,0,0,0,0,0,0,0,0,0,0,0,-0.3194,-0.3197,-0.3353,-0.3354,-0.3355,-0.3411,-0.3412,-0.3412,-0.3432,-0.3433,-0.3433,-0.3433,-0.3498,-0.35,-0.3502,0,0,0,0,0,0,0,0,0,0,0,0,0,-0.3255,-0.3198,-0.3353,-0.3375,-0.3378,-0.3411,-0.3412,-0.3412,-0.3432,-0.3433,-0.3433,-0.3433,-0.3498,-0.35,-0.3502,-0.3511,0,0,-0.351,-0.3511,0,0,0,0,0,0,0,0,-0.3251,-0.326,-0.3371,-0.3374,-0.3377,-0.3419,-0.338,-0.3447,-0.3432,-0.3407,-0.3433,-0.3433,-0.3476,-0.348,-0.3484,-0.3514,-0.3517,-0.351,-0.3511,-0.3512,-0.3513,0,0,0,0,0,0,0,-0.3247,-0.3257,-0.3371,-0.3372,-0.3376,-0.3361,-0.337,-0.3392,-0.3436,-0.3409,-0.3412,-0.3425,-0.3477,-0.3481,-0.3485,-0.3518,-0.351,-0.3512,-0.3513,-0.3514,-0.3467,-0.3464,0,0,0,0,0,0,-0.3253,-0.3254,-0.337,-0.3374,-0.3319,-0.3364,-0.3374,-0.3401,-0.3435,-0.3442,-0.3425,-0.3426,-0.3477,-0.3483,-0.3488,-0.3437,-0.3512,-0.3514,-0.3516,-0.3469,-0.3466,-0.3463,0,0,0,0,0,0,-0.3249,-0.3263,-0.3367,-0.3317,-0.333,-0.3367,-0.3398,-0.3403,-0.3413,-0.3448,-0.3454,-0.3432,-0.3477,-0.3485,-0.3476,-0.3442,-0.3516,-0.3518,-0.3472,-0.3468,-0.3464,-0.3376,0,0,0,0,0,0,-0.3244,-0.3262,-0.3272,-0.3318,-0.3334,-0.3365,-0.3398,-0.3404,-0.3423,-0.3425,-0.3456,-0.3462,-0.3478,-0.3471,-0.3478,-0.3447,-0.352,-0.3476,-0.347,-0.3466,-0.3382,-0.3369,-0.3358,0,0,0,0,0,-0.3239,-0.3256,-0.3273,-0.3287,-0.3352,-0.3365,-0.3369,-0.3393,-0.3423,-0.3407,-0.342,-0.3461,-0.3444,-0.3472,-0.348,-0.3448,-0.3478,-0.3472,-0.3466,-0.3388,-0.3372,-0.3359,0,0,0,0,0,0,-0.3193,-0.3262,-0.3281,-0.3319,-0.333,-0.3369,-0.337,-0.3395,-0.3397,-0.3402,-0.3439,-0.3443,-0.3426,-0.3442,-0.3472,-0.3414,-0.3463,-0.3459,-0.3401,-0.3387,-0.3375,-0.3333,-0.3522,0,0,0,0,0,-0.319,-0.322,-0.3266,-0.329,-0.33,-0.3336,-0.3347,-0.3362,-0.3379,-0.3382,-0.3402,-0.341,-0.3406,-0.3401,-0.3408,-0.3382,-0.3377,-0.336,-0.3348,-0.3338,-0.3305,-0.326,-0.3241,-0.3443,-0.3443,-0.3443,0,0,-0.318,-0.3221,-0.3238,-0.3281,-0.33,-0.3283,-0.3342,-0.3352,-0.3325,-0.3389,-0.3358,-0.3384,-0.3393,-0.3356,-0.3348,-0.3365,-0.3278,-0.333,-0.3322,-0.3294,-0.3252,-0.3232,-0.3215,-0.3439,-0.344,-0.344,0,0,-0.3137,-0.3209,-0.3194,-0.3206,-0.323,-0.3252,-0.3255,-0.3285,-0.3284,-0.3278,-0.3295,-0.3268,-0.3309,-0.3255,-0.3249,-0.3168,-0.3229,-0.3205,-0.3101,-0.3058,-0.3041,-0.3026,-0.3002,-0.2985,-0.3184,-0.3184,-0.3184,0,-0.3105,-0.311,-0.3185,-0.3162,-0.3162,-0.3233,-0.3191,-0.3201,-0.3215,-0.3202,-0.3257,-0.3238,-0.3239,-0.3149,-0.3113,-0.3137,-0.3154,-0.3163,-0.3043,-0.3028,-0.3014,-0.2993,-0.2976,-0.3179,-0.318,-0.318,-0.318,0,-0.3027,-0.3036,-0.3031,-0.3028,-0.3039,-0.3023,-0.3053,-0.3052,-0.3097,-0.3105,-0.307,-0.3067,-0.3047,-0.3042,-0.3061,-0.295,-0.3009,-0.3049,-0.3084,-0.2989,-0.2972,-0.2956,-0.3172,-0.3174,-0.3175,-0.3176,0,0,-0.2908,-0.2962,-0.2951,-0.2946,-0.2968,-0.2974,-0.294,-0.292,-0.2914,-0.2924,-0.2891,-0.2841,-0.287,-0.2856,-0.2864,-0.2808,-0.2717,-0.2888,-0.2889,-0.287,-0.2658,-0.2593,-0.257,-0.2773,-0.2769,-0.2766,-0.2689,0,-0.2795,-0.2759,-0.28,-0.2752,-0.2737,-0.2799,-0.2774,-0.2778,-0.2814,-0.2807,-0.2784,-0.2775,-0.2792,-0.28,-0.2734,-0.2752,-0.2671,-0.2735,-0.2746,-0.2745,-0.2703,-0.2546,-0.2463,-0.2378,-0.2674,-0.2671,-0.2669,0,-0.2654,-0.2666,-0.2614,-0.2652,-0.2649,-0.2631,-0.2642,-0.2629,-0.2636,-0.267,-0.2645,-0.2684,-0.2585,-0.2644,-0.2549,-0.2617,-0.26,-0.2602,-0.2601,-0.2551,-0.2646,-0.2517,-0.2338,-0.2333,-0.2645,-0.2647,-0.2649,0,-0.2531,-0.2522,-0.2495,-0.2499,-0.2547,-0.2532,-0.2551,-0.2574,-0.258,-0.2579,-0.261,-0.2542,-0.2537,-0.2494,-0.2493,-0.254,-0.2426,-0.2491,-0.2391,-0.239,-0.2314,-0.231,-0.2124,-0.2368,-0.2368,-0.2368,-0.2368,0,-0.2395,-0.2366,-0.2447,-0.2434,-0.2408,-0.2465,-0.2444,-0.2467,-0.2497,-0.2495,-0.2527,-0.2513,-0.251,-0.2475,-0.2458,-0.2364,-0.2384,-0.2314,-0.2333,-0.2282,-0.2276,-0.2268,-0.2314,-0.2365,-0.2366,-0.2366,-0.2367,0,-0.2264,-0.231,-0.229,-0.2342,-0.2354,-0.2344,-0.24,-0.2399,-0.2446,-0.2447,-0.2448,-0.2481,-0.2434,-0.2412,-0.2353,-0.2311,-0.2194,-0.2193,-0.2138,-0.2147,-0.2037,-0.2083,-0.1911,-0.1856,-0.2054,-0.2051,-0.2049,0,-0.2198,-0.2175,-0.2228,-0.223,-0.225,-0.2263,-0.2275,-0.2348,-0.2364,-0.2418,-0.2407,-0.2389,-0.2345,-0.2235,-0.2152,-0.2053,-0.208,-0.1926,-0.1939,-0.1946,-0.2014,-0.2059,-0.203,-0.1825,-0.1821,-0.1818,-0.1815,0,-0.2067,-0.2094,-0.21,-0.2122,-0.2135,-0.2155,-0.2186,-0.2203,-0.2287,-0.2294,-0.2287,-0.2257,-0.2164,-0.2028,-0.1919,-0.1856,-0.1883,-0.1856,-0.1865,-0.1774,-0.1807,-0.1795,-0.1998,-0.1787,-0.179,-0.1792,-0.1793,-0.1794,-0.1969,-0.1956,-0.1986,-0.2003,-0.2025,-0.2046,-0.1994,-0.2061,-0.2072,-0.204,-0.2129,-0.2032,-0.1957,-0.1781,-0.1708,-0.1581,-0.1652,-0.1549,-0.1596,-0.1634,-0.1572,-0.1701,-0.1516,-0.1517,-0.1518,-0.1519,-0.152,0,-0.1847,-0.1863,-0.1868,-0.1905,-0.1894,-0.1925,-0.1922,-0.1824,-0.1784,-0.1788,-0.1755,-0.1736,-0.1621,-0.1555,-0.1445,-0.1362,-0.1341,-0.1342,-0.1392,-0.1367,-0.1464,-0.1444,-0.1232,-0.1232,-0.1232,-0.1232,-0.1232,-0.1232,-0.1784,-0.1764,-0.1794,-0.1775,-0.1768,-0.1622,-0.1557,-0.1452,-0.1369,-0.1257,-0.1247,-0.123,-0.1359,-0.1488,-0.1381,-0.13,-0.1287,-0.1236,-0.1269,-0.1375,-0.1399,-0.1423,-0.141,-0.1194,-0.1194,-0.1119,-0.1118,-0.1118]},{"header":{"parameterUnit":"m.s-1","parameterCategory":2,"la1":30.2991,"la2":30.254,"lo1":-89.0895,"lo2":-89.0444,"dy":0.0017,"dx":0.0017,"nx":28,"ny":28,"refTime":"2026-02-27T03:00:00:Z","depth":"0","parameterNumber":3,"parameterNumberName":"V-component_of_CURRENTS"},"data":[0,0,0,0,0,0,0,0,0,0,0,0,0,0,0,0,0,0,0,0,0,0,0,0,0,0,0,0,0,0,0,0,0,0,0,0,0,0,0,0,0,0,0,0,0,0,0,0,0,0,0,0,0,0,0,0,0,0,-0.0081,-0.008,0,0.007,0.0072,0.0074,0.0206,0.0207,0.0209,0.021,0.0488,0.0494,0.05,0,0,0,0,0,0,0,0,0,0,0,0,0,-0.0232,-0.0229,-0.0081,-0.008,-0.0078,0.007,0.0072,0.0074,0.0206,0.0207,0.0209,0.0211,0.0486,0.0493,0.0501,0,0,0,0,0,0,0,0,0,0,0,0,0,-0.013,-0.0229,-0.0082,0.0004,0.0013,0.0069,0.0072,0.0075,0.0206,0.0208,0.0209,0.0211,0.0483,0.0492,0.0502,0.052,0,0,0.053,0.0534,0,0,0,0,0,0,0,0,-0.0136,-0.0124,-0.001,-0.0002,0.0008,0.0119,0.0121,0.0229,0.0205,0.0135,0.021,0.0212,0.0373,0.0392,0.0417,0.0533,0.0545,0.0531,0.0536,0.054,0.0543,0,0,0,0,0,0,0,-0.0143,-0.013,-0.0019,-0.0009,0.0002,0.0043,0.0059,0.0142,0.0245,0.0141,0.015,0.0163,0.038,0.0408,0.0425,0.0549,0.0531,0.0539,0.0545,0.0548,0.0696,0.0695,0,0,0,0,0,0,-0.017,-0.0137,-0.0024,-0.0015,-0.0063,0.0044,0.0062,0.0083,0.0242,0.0267,0.0161,0.0168,0.0391,0.0414,0.0436,0.0465,0.054,0.0549,0.0554,0.0698,0.0696,0.0694,0,0,0,0,0,0,-0.0173,-0.0161,-0.003,-0.0075,-0.0055,0.0044,0.0067,0.0085,0.0119,0.0255,0.0283,0.0175,0.0394,0.0423,0.0489,0.0477,0.0553,0.0562,0.07,0.0697,0.0695,0.0526,0,0,0,0,0,0,-0.0178,-0.0163,-0.0161,-0.0076,-0.0054,-0.0007,0.0065,0.0087,0.0122,0.0133,0.0277,0.0304,0.0397,0.0474,0.0498,0.0492,0.0569,0.0702,0.0698,0.0696,0.0534,0.0518,0.0505,0,0,0,0,0,-0.0184,-0.0187,-0.0161,-0.0148,-0.0052,-0.0009,0.0006,0.0085,0.012,0.0124,0.0209,0.03,0.0473,0.048,0.0509,0.0505,0.0703,0.0699,0.0696,0.054,0.0521,0.0505,0,0,0,0,0,0,-0.0247,-0.0171,-0.0141,-0.012,-0.0076,0.0013,0.0025,0.007,0.0139,0.0153,0.0281,0.0313,0.0368,0.0449,0.0454,0.0535,0.0603,0.0604,0.0474,0.0458,0.0444,0.0413,0.0577,0,0,0,0,0,-0.0266,-0.0246,-0.0176,-0.0162,-0.0144,-0.0067,-0.004,0.0007,0.0078,0.0111,0.0203,0.0298,0.0372,0.0423,0.0503,0.0547,0.0612,0.0561,0.0546,0.0534,0.0526,0.0583,0.0573,0.0682,0.0682,0.0682,0,0,-0.0286,-0.0244,-0.0231,-0.0175,-0.0131,-0.0119,-0.0045,-0.0016,-0.0003,0.013,0.0173,0.0252,0.037,0.0416,0.0449,0.0487,0.0536,0.0529,0.0517,0.0517,0.0578,0.0568,0.0558,0.0679,0.068,0.068,0,0,-0.0331,-0.0284,-0.0289,-0.026,-0.0212,-0.0165,-0.0166,-0.0092,-0.0055,-0.001,0.0078,0.0129,0.0265,0.0323,0.0377,0.0327,0.0452,0.0367,0.0281,0.0335,0.0327,0.032,0.038,0.0381,0.0365,0.0364,0.0364,0,-0.0364,-0.0351,-0.0288,-0.0292,-0.0273,-0.0195,-0.0205,-0.0164,-0.0081,-0.0057,-0.0012,0.0133,0.0216,0.0267,0.0243,0.0295,0.0356,0.0337,0.0315,0.031,0.0307,0.037,0.0373,0.0356,0.0357,0.0358,0.0358,0,-0.0413,-0.0404,-0.0408,-0.0381,-0.0359,-0.0353,-0.0295,-0.0273,-0.0217,-0.0164,-0.0106,-0.0011,0.008,0.0104,0.0164,0.0174,0.0235,0.0284,0.0355,0.0285,0.0357,0.0363,0.0343,0.0347,0.0349,0.0351,0,0,-0.0476,-0.0449,-0.0449,-0.0449,-0.0404,-0.0388,-0.0382,-0.0343,-0.0324,-0.0257,-0.0225,-0.0147,-0.0091,-0.0032,0.0041,0.0075,0.0081,0.0156,0.0163,0.0208,0.0215,0.0264,0.0277,0.0136,0.0136,0.0136,0.0273,0,-0.0533,-0.0562,-0.0528,-0.0548,-0.0553,-0.049,-0.0485,-0.0441,-0.0377,-0.0329,-0.0251,-0.0186,-0.014,-0.0097,-0.0067,0.0063,0.009,0.0041,0.0284,0.0291,0.0337,0.0282,0.0323,0.0449,0.0279,0.028,0.0281,0,-0.0589,-0.0598,-0.0634,-0.0616,-0.0613,-0.0614,-0.0574,-0.0556,-0.048,-0.0429,-0.0368,-0.028,-0.0226,-0.0174,-0.0025,-0.005,0.0052,0.0141,0.015,0.026,0.035,0.0496,0.0467,0.0607,0.0291,0.029,0.0289,0,-0.0652,-0.0664,-0.0693,-0.0689,-0.0665,-0.0669,-0.065,-0.0589,-0.0564,-0.0489,-0.0447,-0.0356,-0.0283,-0.0169,0.0004,-0.0001,0.0187,0.0217,0.0351,0.0357,0.0472,0.0487,0.0601,0.0299,0.0298,0.0298,0.0298,0,-0.0713,-0.0732,-0.0726,-0.074,-0.0768,-0.0727,-0.073,-0.0694,-0.0632,-0.0591,-0.0505,-0.0441,-0.0277,-0.0139,-0.0007,0.0197,0.0185,0.0325,0.0389,0.0413,0.0421,0.0615,0.0666,0.0303,0.0302,0.0301,0.03,0,-0.0767,-0.0765,-0.0797,-0.0796,-0.0797,-0.0813,-0.0787,-0.0779,-0.0715,-0.0656,-0.0634,-0.0487,-0.0303,-0.0128,0.0094,0.0204,0.0479,0.0454,0.0471,0.0532,0.0761,0.0801,0.099,0.1081,0.0612,0.0614,0.0615,0,-0.0794,-0.0819,-0.0845,-0.0867,-0.0869,-0.0882,-0.0886,-0.0831,-0.0807,-0.0671,-0.0643,-0.046,-0.0306,0.0027,0.0251,0.0495,0.0593,0.0666,0.0641,0.0768,0.0861,0.0886,0.095,0.0733,0.0736,0.0738,0.0739,0,-0.0843,-0.0853,-0.0879,-0.0932,-0.0952,-0.0964,-0.0957,-0.0938,-0.0846,-0.0741,-0.0583,-0.0447,-0.0157,0.0146,0.0445,0.0588,0.0772,0.0714,0.0852,0.0957,0.0989,0.111,0.0652,0.0757,0.0755,0.0754,0.0753,0.0752,-0.0869,-0.0905,-0.0941,-0.0976,-0.1006,-0.1005,-0.0936,-0.0891,-0.0778,-0.051,-0.049,-0.0153,0.0073,0.0504,0.0658,0.0987,0.0942,0.1087,0.1125,0.1139,0.1216,0.0787,0.0955,0.0955,0.0954,0.0954,0.0953,0,-0.0886,-0.0921,-0.0976,-0.0982,-0.0964,-0.0985,-0.0935,-0.0793,-0.0569,-0.0344,-0.0109,0.0289,0.0602,0.0855,0.1205,0.1387,0.1423,0.1479,0.1527,0.1574,0.1214,0.1209,0.1433,0.1433,0.1433,0.1432,0.1432,0.1432,-0.0896,-0.0944,-0.0965,-0.0918,-0.0888,-0.0767,-0.0682,-0.0485,-0.0287,0.0175,0.0541,0.0727,0.0967,0.1391,0.172,0.1757,0.1919,0.1905,0.1989,0.174,0.1705,0.1673,0.1681,0.2,0.2001,0.2348,0.2352,0.2354]}],[{"header":{"parameterUnit":"m.s-1","parameterCategory":2,"la1":30.2991,"la2":30.254,"lo1":-89.0895,"lo2":-89.0444,"dy":0.0017,"dx":0.0017,"nx":28,"ny":28,"refTime":"2026-02-27T03:00:00:Z","depth":"2","parameterNumber":2,"parameterNumberName":"U-component_of_CURRENTS"},"data":[0,0,0,0,0,0,0,0,0,0,0,0,0,0,0,0,0,0,0,0,0,0,0,0,0,0,0,0,0,0,0,0,0,0,0,0,0,0,0,0,0,0,0,0,0,0,0,0,0,0,0,0,0,0,0,0,0,0,-0.224,-0.2241,0,-0.2292,-0.2293,-0.2293,-0.2305,-0.2304,-0.2304,-0.2304,-0.2394,-0.2396,-0.2399,0,0,0,0,0,0,0,0,0,0,0,0,0,-0.2167,-0.2168,-0.224,-0.2241,-0.2242,-0.2292,-0.2293,-0.2293,-0.2305,-0.2304,-0.2304,-0.2304,-0.2393,-0.2396,-0.2399,0,0,0,0,0,0,0,0,0,0,0,0,0,-0.2205,-0.2168,-0.224,-0.2255,-0.2257,-0.2292,-0.2293,-0.2293,-0.2305,-0.2304,-0.2304,-0.2304,-0.2392,-0.2395,-0.2399,-0.243,0,0,-0.2411,-0.2413,0,0,0,0,0,0,0,0,-0.2203,-0.2208,-0.2252,-0.2254,-0.2256,-0.2293,-0.23,-0.2342,-0.2305,-0.2285,-0.2304,-0.2304,-0.2365,-0.2371,-0.2378,-0.2434,-0.2438,-0.2412,-0.2414,-0.2416,-0.2417,0,0,0,0,0,0,0,-0.22,-0.2206,-0.2259,-0.2253,-0.2255,-0.2264,-0.2269,-0.2308,-0.2325,-0.2286,-0.2288,-0.2296,-0.2366,-0.2375,-0.2381,-0.2439,-0.2411,-0.2415,-0.2417,-0.2419,-0.2462,-0.246,0,0,0,0,0,0,-0.2197,-0.2203,-0.2257,-0.2261,-0.223,-0.2266,-0.2271,-0.228,-0.2324,-0.2331,-0.2297,-0.2297,-0.2368,-0.2376,-0.2384,-0.2399,-0.2416,-0.2419,-0.2421,-0.2463,-0.2461,-0.246,0,0,0,0,0,0,-0.2195,-0.2201,-0.2255,-0.2234,-0.2242,-0.2268,-0.2278,-0.2281,-0.2299,-0.2332,-0.2339,-0.2311,-0.2368,-0.2379,-0.2411,-0.2404,-0.2421,-0.2424,-0.2464,-0.2462,-0.2461,-0.2446,0,0,0,0,0,0,-0.2193,-0.22,-0.2206,-0.2234,-0.2243,-0.2274,-0.2278,-0.2283,-0.2305,-0.2305,-0.2347,-0.2354,-0.2369,-0.2405,-0.2415,-0.241,-0.2427,-0.2466,-0.2463,-0.2461,-0.2448,-0.2444,-0.244,0,0,0,0,0,-0.219,-0.2196,-0.2206,-0.2213,-0.225,-0.2274,-0.2279,-0.2295,-0.2306,-0.231,-0.2333,-0.2353,-0.2396,-0.2408,-0.242,-0.2415,-0.2467,-0.2464,-0.2461,-0.2449,-0.2444,-0.244,0,0,0,0,0,0,-0.2168,-0.2199,-0.221,-0.2226,-0.2249,-0.2277,-0.2284,-0.2303,-0.2325,-0.2329,-0.2359,-0.2367,-0.2382,-0.2401,-0.2413,-0.2414,-0.2427,-0.2427,-0.2414,-0.241,-0.2406,-0.2417,-0.2431,0,0,0,0,0,-0.2167,-0.2177,-0.221,-0.2221,-0.2234,-0.2263,-0.2277,-0.2292,-0.2317,-0.2327,-0.2353,-0.2371,-0.2379,-0.2398,-0.2408,-0.2435,-0.2432,-0.2429,-0.2425,-0.2422,-0.2435,-0.2416,-0.2412,-0.2451,-0.2451,-0.2451,0,0,-0.2161,-0.218,-0.2185,-0.2217,-0.2236,-0.2257,-0.227,-0.2293,-0.2309,-0.2335,-0.2361,-0.2365,-0.238,-0.2388,-0.2397,-0.2409,-0.2403,-0.2419,-0.2417,-0.2432,-0.2413,-0.2409,-0.2406,-0.2449,-0.245,-0.245,0,0,-0.2155,-0.2172,-0.2181,-0.2202,-0.2236,-0.2254,-0.2264,-0.2298,-0.2309,-0.2335,-0.2341,-0.2346,-0.2377,-0.2378,-0.2384,-0.2371,-0.2378,-0.2364,-0.2371,-0.2351,-0.2348,-0.2346,-0.2317,-0.2313,-0.237,-0.237,-0.237,0,-0.215,-0.2166,-0.2186,-0.2206,-0.2224,-0.2255,-0.2274,-0.2292,-0.233,-0.2337,-0.2337,-0.2352,-0.2369,-0.2374,-0.2362,-0.2366,-0.2352,-0.2392,-0.2348,-0.2346,-0.2344,-0.2315,-0.231,-0.2369,-0.2369,-0.2369,-0.2369,0,-0.2151,-0.2171,-0.2178,-0.2212,-0.2232,-0.2251,-0.2284,-0.2302,-0.2317,-0.2331,-0.2334,-0.2343,-0.2352,-0.2344,-0.2358,-0.2346,-0.2338,-0.2341,-0.2365,-0.2339,-0.231,-0.2305,-0.2367,-0.2368,-0.2368,-0.2368,0,0,-0.212,-0.217,-0.2173,-0.2189,-0.2237,-0.2252,-0.228,-0.2306,-0.2319,-0.2333,-0.2338,-0.2341,-0.2342,-0.2347,-0.235,-0.2342,-0.2308,-0.2341,-0.234,-0.2323,-0.2254,-0.2175,-0.2163,-0.2303,-0.2303,-0.2302,-0.2233,0,-0.2116,-0.2146,-0.2175,-0.2203,-0.2219,-0.2258,-0.2279,-0.2307,-0.2323,-0.2334,-0.2334,-0.2337,-0.2343,-0.2341,-0.2333,-0.2321,-0.2298,-0.2326,-0.2275,-0.2273,-0.2215,-0.2155,-0.2014,-0.1935,-0.2228,-0.2228,-0.2227,0,-0.21,-0.2126,-0.215,-0.2195,-0.2206,-0.2226,-0.2259,-0.2285,-0.2312,-0.2323,-0.2329,-0.2333,-0.2333,-0.233,-0.2298,-0.2316,-0.2285,-0.2267,-0.2264,-0.2199,-0.2185,-0.2011,-0.1915,-0.2219,-0.222,-0.222,-0.2221,0,-0.2048,-0.2102,-0.2117,-0.2134,-0.2192,-0.2205,-0.2234,-0.2272,-0.2289,-0.2313,-0.232,-0.2322,-0.2316,-0.229,-0.2265,-0.2279,-0.2214,-0.2226,-0.2119,-0.2113,-0.1988,-0.1971,-0.2181,-0.2181,-0.2182,-0.2182,-0.2182,0,-0.2019,-0.2029,-0.2093,-0.2099,-0.2114,-0.217,-0.2186,-0.2217,-0.2257,-0.2266,-0.2305,-0.23,-0.2306,-0.2277,-0.2251,-0.2162,-0.2196,-0.2106,-0.2084,-0.1974,-0.1958,-0.2212,-0.2217,-0.2179,-0.218,-0.218,-0.2181,0,-0.1945,-0.1992,-0.2008,-0.207,-0.2086,-0.2092,-0.2154,-0.2164,-0.2219,-0.223,-0.2237,-0.2274,-0.2234,-0.2219,-0.2169,-0.2128,-0.2064,-0.202,-0.1887,-0.185,-0.1981,-0.1985,-0.1893,-0.1889,-0.1886,-0.1884,-0.1882,0,-0.1903,-0.1904,-0.1965,-0.1973,-0.1995,-0.2025,-0.2043,-0.2122,-0.2141,-0.2201,-0.2193,-0.2184,-0.2138,-0.2043,-0.1968,-0.1877,-0.1962,-0.1706,-0.1707,-0.196,-0.1949,-0.1958,-0.1966,-0.1528,-0.1524,-0.152,-0.1517,0,-0.1813,-0.1838,-0.1854,-0.1876,-0.1896,-0.1921,-0.1959,-0.1972,-0.2057,-0.2071,-0.2062,-0.2031,-0.1953,-0.1793,-0.1698,-0.1637,-0.1714,-0.1622,-0.1902,-0.1629,-0.1612,-0.1603,-0.1624,-0.1482,-0.1485,-0.1488,-0.149,-0.1491,-0.1732,-0.1723,-0.1749,-0.1753,-0.1783,-0.1788,-0.1754,-0.1811,-0.1816,-0.1803,-0.1874,-0.1775,-0.1741,-0.1505,-0.141,-0.1342,-0.1463,-0.141,-0.1424,-0.1442,-0.1417,-0.1396,-0.1221,-0.1222,-0.1224,-0.1226,-0.1227,0,-0.1619,-0.1621,-0.1623,-0.1621,-0.1591,-0.1655,-0.1666,-0.161,-0.1559,-0.1593,-0.1556,-0.1378,-0.1263,-0.1235,-0.1069,-0.103,-0.1038,-0.0994,-0.1015,-0.105,-0.1081,-0.1041,-0.0742,-0.0741,-0.074,-0.0738,0,0,-0.156,-0.1517,-0.1516,-0.1421,-0.1414,-0.1327,-0.1298,-0.1252,-0.1239,-0.1166,-0.1124,-0.1198,-0.1202,-0.0979,-0.0918,-0.0804,-0.0921,-0.0761,-0.115,-0.1209,-0.1238,-0.1317,-0.1293,0,0,0,0,0]},{"header":{"parameterUnit":"m.s-1","parameterCategory":2,"la1":30.2991,"la2":30.254,"lo1":-89.0895,"lo2":-89.0444,"dy":0.0017,"dx":0.0017,"nx":28,"ny":28,"refTime":"2026-02-27T03:00:00:Z","depth":"2","parameterNumber":3,"parameterNumberName":"V-component_of_CURRENTS"},"data":[0,0,0,0,0,0,0,0,0,0,0,0,0,0,0,0,0,0,0,0,0,0,0,0,0,0,0,0,0,0,0,0,0,0,0,0,0,0,0,0,0,0,0,0,0,0,0,0,0,0,0,0,0,0,0,0,0,0,-0.0416,-0.0416,0,-0.0343,-0.0342,-0.0341,-0.0288,-0.0287,-0.0287,-0.0287,-0.0123,-0.0119,-0.0115,0,0,0,0,0,0,0,0,0,0,0,0,0,-0.0471,-0.047,-0.0417,-0.0416,-0.0415,-0.0343,-0.0342,-0.0341,-0.0288,-0.0287,-0.0287,-0.0287,-0.0125,-0.012,-0.0115,0,0,0,0,0,0,0,0,0,0,0,0,0,-0.0426,-0.047,-0.0417,-0.0381,-0.0377,-0.0344,-0.0342,-0.0341,-0.0288,-0.0287,-0.0287,-0.0286,-0.0126,-0.012,-0.0114,-0.0087,0,0,-0.0096,-0.0093,0,0,0,0,0,0,0,0,-0.0429,-0.0424,-0.0387,-0.0383,-0.0379,-0.0325,-0.0302,-0.0252,-0.0288,-0.032,-0.0287,-0.0286,-0.0184,-0.0173,-0.016,-0.0079,-0.0072,-0.0095,-0.0092,-0.0089,-0.0087,0,0,0,0,0,0,0,-0.0432,-0.0427,-0.0386,-0.0386,-0.0381,-0.0355,-0.0348,-0.0292,-0.0253,-0.0317,-0.0314,-0.0308,-0.0181,-0.0166,-0.0155,-0.007,-0.0095,-0.009,-0.0086,-0.0084,0.0045,0.0044,0,0,0,0,0,0,-0.0447,-0.043,-0.0388,-0.0384,-0.0405,-0.0355,-0.0347,-0.0342,-0.0255,-0.0243,-0.0308,-0.0306,-0.0176,-0.0162,-0.0149,-0.0106,-0.0089,-0.0083,-0.008,0.0045,0.0045,0.0044,0,0,0,0,0,0,-0.0448,-0.0444,-0.0391,-0.0406,-0.0398,-0.0355,-0.0349,-0.0341,-0.0325,-0.025,-0.0235,-0.0301,-0.0175,-0.0158,-0.0108,-0.0099,-0.0081,-0.0075,0.0045,0.0045,0.0045,-0.0022,0,0,0,0,0,0,-0.045,-0.0445,-0.0447,-0.0407,-0.0398,-0.0377,-0.0349,-0.034,-0.0323,-0.0319,-0.0239,-0.0223,-0.0174,-0.0118,-0.0102,-0.009,-0.007,0.0045,0.0045,0.0045,-0.002,-0.0025,-0.0029,0,0,0,0,0,-0.0452,-0.0458,-0.0448,-0.0443,-0.0402,-0.0377,-0.037,-0.0336,-0.0323,-0.0319,-0.0271,-0.0226,-0.0109,-0.0113,-0.0095,-0.0081,0.0046,0.0045,0.0045,-0.0018,-0.0024,-0.0029,0,0,0,0,0,0,-0.0481,-0.0452,-0.044,-0.0436,-0.0412,-0.0369,-0.0363,-0.0342,-0.0302,-0.0295,-0.0227,-0.0208,-0.0162,-0.0117,-0.0123,-0.0047,-0.0024,-0.0021,-0.0078,-0.0083,-0.0087,-0.009,-0.0065,0,0,0,0,0,-0.0491,-0.0489,-0.0455,-0.0453,-0.0443,-0.0405,-0.0392,-0.0369,-0.0329,-0.0312,-0.0259,-0.0201,-0.015,-0.0115,-0.0065,-0.002,0.0023,-0.0,-0.0005,-0.0009,-0.0,0.0054,0.0055,0.0043,0.0043,0.0043,0,0,-0.0504,-0.0487,-0.0486,-0.046,-0.0438,-0.0424,-0.0395,-0.0378,-0.0362,-0.0298,-0.0261,-0.0216,-0.0145,-0.01,-0.0074,-0.0058,0.0015,-0.001,-0.0014,-0.0002,0.0054,0.0055,0.0056,0.0042,0.0043,0.0043,0,0,-0.0525,-0.0512,-0.0515,-0.0497,-0.0469,-0.0443,-0.0442,-0.0402,-0.0379,-0.0344,-0.0295,-0.0247,-0.0171,-0.0117,-0.008,-0.0078,-0.0017,-0.0065,-0.0079,-0.0027,-0.0026,-0.0024,0.0022,0.0029,-0.0061,-0.0061,-0.0061,0,-0.054,-0.0538,-0.0512,-0.0507,-0.0495,-0.0456,-0.0453,-0.0423,-0.0372,-0.0351,-0.034,-0.0233,-0.0175,-0.0109,-0.011,-0.0085,-0.0052,-0.0065,-0.0034,-0.003,-0.0027,0.002,0.0028,-0.0064,-0.0064,-0.0063,-0.0063,0,-0.0558,-0.0556,-0.0557,-0.0537,-0.0521,-0.0514,-0.0473,-0.0453,-0.0425,-0.0389,-0.0332,-0.0263,-0.0197,-0.0174,-0.0137,-0.0084,-0.0068,-0.0053,-0.0021,-0.003,0.002,0.003,-0.0069,-0.0068,-0.0067,-0.0066,0,0,-0.0588,-0.0574,-0.0573,-0.0574,-0.0538,-0.0529,-0.0503,-0.0466,-0.0448,-0.0395,-0.0362,-0.0278,-0.0244,-0.02,-0.0148,-0.0097,-0.0049,-0.007,-0.0065,-0.0027,0.006,0.0081,0.0094,-0.0034,-0.0033,-0.0031,0.0082,0,-0.0609,-0.062,-0.0597,-0.0601,-0.0604,-0.0562,-0.0543,-0.0503,-0.0462,-0.042,-0.0342,-0.0292,-0.0252,-0.0224,-0.0168,-0.0078,-0.0025,-0.0081,0.0067,0.0072,0.0089,0.0106,0.0085,0.0185,0.0092,0.0093,0.0095,0,-0.063,-0.0636,-0.0651,-0.0642,-0.0637,-0.063,-0.0596,-0.0572,-0.0499,-0.0466,-0.0401,-0.034,-0.025,-0.0225,-0.0072,-0.0114,-0.0031,0.0037,0.0043,0.0097,0.0112,0.0182,0.0207,0.0112,0.011,0.0109,0.0108,0,-0.0673,-0.0671,-0.0689,-0.0686,-0.0666,-0.0662,-0.0646,-0.0589,-0.0567,-0.0492,-0.0468,-0.0358,-0.0298,-0.0187,-0.0047,-0.0059,0.0118,0.012,0.022,0.0222,0.0254,0.0256,0.0229,0.0229,0.0229,0.0229,0.0228,0,-0.0707,-0.0719,-0.0715,-0.0727,-0.0745,-0.071,-0.0708,-0.0675,-0.0618,-0.0585,-0.0498,-0.0443,-0.0286,-0.0166,-0.005,0.0119,0.0119,0.023,0.0259,0.0228,0.0227,0.0204,0.0199,0.0233,0.0232,0.0231,0.0231,0,-0.075,-0.0747,-0.0771,-0.0768,-0.0769,-0.0783,-0.0762,-0.0755,-0.0697,-0.0651,-0.0629,-0.0492,-0.0333,-0.0174,0.0026,0.0121,0.0275,0.0334,0.0285,0.0306,0.0343,0.0333,0.0456,0.0458,0.0459,0.0461,0.0462,0,-0.0773,-0.0792,-0.0814,-0.0836,-0.0838,-0.085,-0.0855,-0.0805,-0.0787,-0.0674,-0.0652,-0.049,-0.0361,-0.0071,0.0127,0.0339,0.0334,0.0436,0.0415,0.0354,0.0369,0.0357,0.0346,0.0429,0.043,0.0431,0.0431,0,-0.0816,-0.0825,-0.0848,-0.09,-0.0921,-0.0937,-0.0934,-0.0927,-0.0849,-0.079,-0.0669,-0.0553,-0.0269,-0.0029,0.0237,0.0356,0.0396,0.0455,0.0426,0.0366,0.0336,0.0348,0.0337,0.0436,0.0436,0.0435,0.0435,0.0435,-0.0843,-0.0877,-0.0913,-0.0959,-0.099,-0.1011,-0.1018,-0.0985,-0.0938,-0.0823,-0.0693,-0.0501,-0.0261,0.0118,0.031,0.0478,0.0475,0.0517,0.0512,0.0508,0.0476,0.0449,0.0565,0.0565,0.0565,0.0565,0.0565,0,-0.0875,-0.0914,-0.0967,-0.1021,-0.1067,-0.1064,-0.106,-0.1036,-0.0973,-0.0837,-0.0693,-0.0404,-0.0127,0.0109,0.0384,0.0552,0.0532,0.0572,0.0514,0.0509,0.0504,0.0469,0.0558,0.0558,0.0558,0.0559,0,0,-0.0892,-0.0952,-0.0984,-0.1071,-0.111,-0.1138,-0.1131,-0.1068,-0.0969,-0.0815,-0.066,-0.0444,-0.0134,0.0059,0.0278,0.042,0.0411,0.0429,0.042,0.032,0.0312,0.0462,0.0401,0,0,0,0,0]}],[{"header":{"parameterUnit":"m.s-1","parameterCategory":2,"la1":30.2991,"la2":30.254,"lo1":-89.0895,"lo2":-89.0444,"dy":0.0017,"dx":0.0017,"nx":28,"ny":28,"refTime":"2026-02-27T03:00:00:Z","depth":"4","parameterNumber":2,"parameterNumberName":"U-component_of_CURRENTS"},"data":[0,0,0,0,0,0,0,0,0,0,0,0,0,0,0,0,0,0,0,0,0,0,0,0,0,0,0,0,0,0,0,0,0,0,0,0,0,0,0,0,0,0,0,0,0,0,0,0,0,0,0,0,0,0,0,0,0,0,-0.1471,-0.1472,0,-0.1538,-0.1539,-0.1539,-0.1579,-0.1579,-0.1579,-0.1579,-0.1623,-0.1624,-0.1625,0,0,0,0,0,0,0,0,0,0,0,0,0,-0.1402,-0.1403,-0.1471,-0.1472,-0.1473,-0.1538,-0.1539,-0.154,-0.1579,-0.1579,-0.1579,-0.1579,-0.1623,-0.1624,-0.1625,0,0,0,0,0,0,0,0,0,0,0,0,0,-0.1446,-0.1403,-0.1471,-0.1501,-0.1504,-0.1538,-0.1539,-0.154,-0.1579,-0.1579,-0.1579,-0.158,-0.1622,-0.1624,-0.1625,-0.1628,0,0,-0.163,-0.163,0,0,0,0,0,0,0,0,-0.1443,-0.1448,-0.1496,-0.1499,-0.1503,-0.1551,-0.153,-0.1568,-0.1579,-0.155,-0.1579,-0.158,-0.1597,-0.16,-0.1612,-0.163,-0.1632,-0.163,-0.1631,-0.1631,-0.1632,0,0,0,0,0,0,0,-0.144,-0.1446,-0.1497,-0.1496,-0.1501,-0.1519,-0.1525,-0.1538,-0.157,-0.1552,-0.1556,-0.1564,-0.1598,-0.161,-0.1613,-0.1632,-0.163,-0.1631,-0.1632,-0.1632,-0.1722,-0.1724,0,0,0,0,0,0,-0.1431,-0.1443,-0.1495,-0.1499,-0.1474,-0.152,-0.1527,-0.1535,-0.157,-0.1577,-0.1563,-0.1565,-0.1608,-0.1611,-0.1615,-0.1678,-0.1631,-0.1633,-0.1633,-0.1721,-0.1723,-0.1724,0,0,0,0,0,0,-0.143,-0.1435,-0.1493,-0.1473,-0.1482,-0.152,-0.1529,-0.1536,-0.1574,-0.1579,-0.1585,-0.1597,-0.1608,-0.1613,-0.165,-0.1678,-0.1633,-0.1634,-0.1719,-0.1721,-0.1724,-0.1767,0,0,0,0,0,0,-0.1427,-0.1434,-0.145,-0.1472,-0.1482,-0.1526,-0.1529,-0.1537,-0.1577,-0.158,-0.1609,-0.1612,-0.1609,-0.1648,-0.1652,-0.1679,-0.1636,-0.1717,-0.172,-0.1723,-0.1764,-0.1771,-0.1777,0,0,0,0,0,-0.1425,-0.1439,-0.1451,-0.1458,-0.1498,-0.1527,-0.1534,-0.1562,-0.1578,-0.1597,-0.1621,-0.1613,-0.1669,-0.1651,-0.1654,-0.1683,-0.1716,-0.1719,-0.1723,-0.1761,-0.1769,-0.1776,0,0,0,0,0,0,-0.1419,-0.1445,-0.1458,-0.1481,-0.1509,-0.1534,-0.1558,-0.1578,-0.1614,-0.1626,-0.1631,-0.1636,-0.1677,-0.1677,-0.1657,-0.1718,-0.1692,-0.1696,-0.1719,-0.1727,-0.1734,-0.1732,-0.1637,0,0,0,0,0,-0.1424,-0.1442,-0.1469,-0.149,-0.1507,-0.1539,-0.1561,-0.1582,-0.1609,-0.1627,-0.1647,-0.167,-0.1691,-0.1708,-0.1722,-0.1757,-0.1736,-0.1779,-0.1785,-0.1791,-0.1793,-0.1787,-0.1793,-0.1736,-0.1736,-0.1736,0,0,-0.1429,-0.1445,-0.1457,-0.1491,-0.1517,-0.1548,-0.1554,-0.1594,-0.1627,-0.1625,-0.168,-0.1693,-0.1705,-0.1743,-0.1762,-0.1749,-0.1795,-0.1795,-0.1799,-0.1799,-0.1791,-0.1797,-0.1801,-0.1738,-0.1738,-0.1737,0,0,-0.144,-0.1463,-0.1483,-0.1509,-0.1552,-0.1572,-0.159,-0.1631,-0.1659,-0.1705,-0.1715,-0.1748,-0.1781,-0.1796,-0.1806,-0.1859,-0.1827,-0.1868,-0.1902,-0.1896,-0.19,-0.1904,-0.1875,-0.1876,-0.1873,-0.1873,-0.1874,0,-0.1449,-0.1475,-0.1494,-0.1523,-0.1552,-0.1586,-0.1621,-0.1652,-0.1703,-0.1726,-0.173,-0.179,-0.1805,-0.1846,-0.1869,-0.1873,-0.1854,-0.1869,-0.1903,-0.1906,-0.1908,-0.1878,-0.1878,-0.1876,-0.1876,-0.1875,-0.1875,0,-0.1468,-0.1504,-0.152,-0.1566,-0.1598,-0.1635,-0.1676,-0.1717,-0.1753,-0.1778,-0.1832,-0.1851,-0.1884,-0.1899,-0.1903,-0.194,-0.1914,-0.1907,-0.1878,-0.1916,-0.1882,-0.1881,-0.188,-0.1879,-0.1878,-0.1877,0,0,-0.1452,-0.1521,-0.1531,-0.1562,-0.1628,-0.1652,-0.1712,-0.1766,-0.1802,-0.1849,-0.1887,-0.1938,-0.1946,-0.1959,-0.1969,-0.1975,-0.1981,-0.1956,-0.1955,-0.1918,-0.1951,-0.1819,-0.1805,-0.1977,-0.1977,-0.1978,-0.1915,0,-0.1468,-0.1523,-0.1558,-0.1622,-0.1654,-0.1707,-0.1754,-0.1808,-0.1849,-0.189,-0.1922,-0.1958,-0.1969,-0.1986,-0.1998,-0.1987,-0.1983,-0.1998,-0.1928,-0.1925,-0.1796,-0.1801,-0.1979,-0.1914,-0.1914,-0.1914,-0.1913,0,-0.1472,-0.1511,-0.1573,-0.1648,-0.1668,-0.1713,-0.1788,-0.1835,-0.1898,-0.1927,-0.197,-0.1986,-0.2022,-0.2013,-0.2012,-0.2019,-0.1992,-0.1975,-0.1972,-0.1833,-0.1792,-0.1871,-0.1911,-0.1911,-0.1912,-0.1912,-0.1912,0,-0.1433,-0.152,-0.1569,-0.1597,-0.1685,-0.1728,-0.1778,-0.1849,-0.1884,-0.1949,-0.1968,-0.2009,-0.2022,-0.2012,-0.1991,-0.2002,-0.1958,-0.1963,-0.1815,-0.1805,-0.1923,-0.192,-0.1946,-0.1946,-0.1946,-0.1947,-0.1947,0,-0.1417,-0.146,-0.1559,-0.1583,-0.1641,-0.1713,-0.1773,-0.1826,-0.1892,-0.1915,-0.1981,-0.1984,-0.2023,-0.2005,-0.1984,-0.1883,-0.1949,-0.1811,-0.1779,-0.1942,-0.1943,-0.1921,-0.1919,-0.1944,-0.1945,-0.1945,-0.1946,0,-0.1354,-0.1425,-0.1483,-0.1587,-0.1622,-0.166,-0.1759,-0.1788,-0.1867,-0.1896,-0.1914,-0.1965,-0.1934,-0.1939,-0.1908,-0.1849,-0.1783,-0.1729,-0.1886,-0.1866,-0.1635,-0.1637,-0.1555,-0.155,-0.1545,-0.1541,-0.1538,0,-0.1318,-0.1345,-0.1463,-0.1494,-0.1544,-0.1617,-0.1656,-0.1758,-0.1782,-0.1859,-0.1849,-0.1859,-0.1872,-0.1707,-0.1742,-0.1667,-0.1652,-0.1607,-0.1642,-0.1617,-0.1595,-0.1604,-0.1611,-0.1531,-0.153,-0.1529,-0.1528,0,-0.1243,-0.1301,-0.1346,-0.141,-0.1466,-0.1514,-0.158,-0.1584,-0.1682,-0.1774,-0.1721,-0.1687,-0.1641,-0.1605,-0.1549,-0.1508,-0.1635,-0.1561,-0.1571,-0.1603,-0.1588,-0.1572,-0.1585,-0.1513,-0.1515,-0.1516,-0.1517,0,-0.1182,-0.1194,-0.1261,-0.13,-0.1367,-0.1378,-0.1434,-0.145,-0.1484,-0.1579,-0.1553,-0.1564,-0.1616,-0.1519,-0.1474,-0.1414,-0.1401,-0.1361,-0.1381,-0.1399,-0.1378,-0.1338,-0.1146,0,0,0,0,0,-0.1112,-0.1109,-0.114,-0.1174,-0.1235,-0.1266,-0.1361,-0.142,-0.1521,-0.1437,-0.149,-0.1438,-0.1365,-0.1377,-0.1278,-0.1408,-0.1411,-0.129,-0.1379,-0.1428,-0.1446,-0.1437,0,0,0,0,0,0,-0.1065,-0.1092,-0.1096,-0.1055,-0.1048,-0.1094,-0.1146,-0.1221,-0.1187,-0.1293,-0.1254,-0.1336,-0.1282,-0.1376,-0.1237,-0.1241,-0.1265,-0.1312,-0.1308,-0.1418,-0.1434,-0.1448,-0.1445,0,0,0,0,0]},{"header":{"parameterUnit":"m.s-1","parameterCategory":2,"la1":30.2991,"la2":30.254,"lo1":-89.0895,"lo2":-89.0444,"dy":0.0017,"dx":0.0017,"nx":28,"ny":28,"refTime":"2026-02-27T03:00:00:Z","depth":"4","parameterNumber":3,"parameterNumberName":"V-component_of_CURRENTS"},"data":[0,0,0,0,0,0,0,0,0,0,0,0,0,0,0,0,0,0,0,0,0,0,0,0,0,0,0,0,0,0,0,0,0,0,0,0,0,0,0,0,0,0,0,0,0,0,0,0,0,0,0,0,0,0,0,0,0,0,-0.0335,-0.0335,0,-0.0303,-0.0303,-0.0303,-0.0288,-0.0288,-0.0288,-0.0288,-0.024,-0.0239,-0.0237,0,0,0,0,0,0,0,0,0,0,0,0,0,-0.0353,-0.0353,-0.0336,-0.0335,-0.0335,-0.0303,-0.0303,-0.0302,-0.0288,-0.0288,-0.0288,-0.0288,-0.024,-0.0239,-0.0237,0,0,0,0,0,0,0,0,0,0,0,0,0,-0.0335,-0.0353,-0.0336,-0.0324,-0.0322,-0.0303,-0.0303,-0.0302,-0.0288,-0.0288,-0.0288,-0.0288,-0.0241,-0.0239,-0.0237,-0.0223,0,0,-0.0231,-0.023,0,0,0,0,0,0,0,0,-0.0336,-0.0335,-0.0326,-0.0325,-0.0323,-0.03,-0.0291,-0.0275,-0.0288,-0.0301,-0.0288,-0.0288,-0.0259,-0.0255,-0.0249,-0.0221,-0.0219,-0.0231,-0.0229,-0.0229,-0.0228,0,0,0,0,0,0,0,-0.0338,-0.0336,-0.0323,-0.0326,-0.0324,-0.0309,-0.0307,-0.0288,-0.0279,-0.0299,-0.0298,-0.0295,-0.0258,-0.0251,-0.0247,-0.0218,-0.0231,-0.0229,-0.0228,-0.0227,-0.0153,-0.0152,0,0,0,0,0,0,-0.0344,-0.0337,-0.0324,-0.0322,-0.033,-0.0309,-0.0307,-0.0307,-0.028,-0.0276,-0.0295,-0.0295,-0.0254,-0.025,-0.0246,-0.0221,-0.0229,-0.0227,-0.0226,-0.0153,-0.0153,-0.0152,0,0,0,0,0,0,-0.0344,-0.0343,-0.0325,-0.0329,-0.0325,-0.0309,-0.0309,-0.0306,-0.0304,-0.0276,-0.0272,-0.0297,-0.0254,-0.0248,-0.0231,-0.0219,-0.0226,-0.0224,-0.0154,-0.0153,-0.0152,-0.0175,0,0,0,0,0,0,-0.0345,-0.0343,-0.035,-0.0329,-0.0325,-0.0321,-0.0309,-0.0306,-0.0302,-0.0301,-0.0276,-0.0272,-0.0254,-0.0234,-0.0229,-0.0216,-0.0222,-0.0155,-0.0154,-0.0153,-0.0176,-0.0175,-0.0175,0,0,0,0,0,-0.0346,-0.0354,-0.035,-0.0349,-0.0333,-0.0321,-0.0318,-0.0306,-0.0302,-0.0304,-0.0284,-0.0273,-0.022,-0.0232,-0.0226,-0.0213,-0.0156,-0.0154,-0.0153,-0.0176,-0.0175,-0.0175,0,0,0,0,0,0,-0.0365,-0.0353,-0.0348,-0.0353,-0.0341,-0.0319,-0.032,-0.0311,-0.0296,-0.0296,-0.027,-0.0264,-0.0241,-0.0224,-0.0237,-0.0185,-0.0183,-0.018,-0.0203,-0.0202,-0.0201,-0.0206,-0.0221,0,0,0,0,0,-0.0373,-0.0377,-0.0359,-0.0364,-0.036,-0.0341,-0.0336,-0.0327,-0.031,-0.0304,-0.0285,-0.0258,-0.0227,-0.0215,-0.019,-0.0168,-0.0143,-0.0152,-0.0151,-0.0151,-0.0149,-0.01,-0.0095,-0.0146,-0.0146,-0.0146,0,0,-0.0383,-0.0376,-0.038,-0.0369,-0.0359,-0.0353,-0.0339,-0.0334,-0.0326,-0.0301,-0.0287,-0.026,-0.0222,-0.0194,-0.0181,-0.018,-0.0123,-0.0149,-0.0149,-0.0147,-0.0098,-0.0093,-0.0088,-0.0145,-0.0145,-0.0145,0,0,-0.0399,-0.0398,-0.0404,-0.0396,-0.0384,-0.037,-0.037,-0.035,-0.034,-0.0325,-0.0295,-0.0261,-0.0231,-0.019,-0.0167,-0.0148,-0.0124,-0.014,-0.0142,-0.0094,-0.009,-0.0086,-0.0052,-0.0044,-0.0139,-0.0139,-0.0139,0,-0.0412,-0.0416,-0.0404,-0.0403,-0.0399,-0.0379,-0.0379,-0.0362,-0.0339,-0.0325,-0.0326,-0.0254,-0.0223,-0.0168,-0.0159,-0.0146,-0.0124,-0.0151,-0.0095,-0.009,-0.0085,-0.0051,-0.0043,-0.014,-0.014,-0.0139,-0.0139,0,-0.0426,-0.0431,-0.0434,-0.0426,-0.0419,-0.0419,-0.0393,-0.0384,-0.037,-0.0347,-0.0304,-0.0258,-0.0214,-0.0192,-0.0171,-0.0115,-0.0112,-0.0103,-0.0101,-0.0082,-0.0047,-0.0038,-0.0141,-0.0141,-0.014,-0.014,0,0,-0.0445,-0.0445,-0.0446,-0.0451,-0.0433,-0.043,-0.0413,-0.0388,-0.0376,-0.0342,-0.0317,-0.0249,-0.0224,-0.0195,-0.0155,-0.0109,-0.0054,-0.0097,-0.0094,-0.0071,0.0039,0.0022,0.003,-0.0041,-0.0039,-0.0038,0.0048,0,-0.0459,-0.0473,-0.0462,-0.0471,-0.0476,-0.0452,-0.044,-0.0413,-0.0387,-0.0358,-0.0293,-0.0257,-0.0225,-0.0204,-0.015,-0.008,-0.0031,-0.0079,0.0026,0.0029,0.0004,0.004,-0.0033,0.0055,0.0057,0.0059,0.006,0,-0.0472,-0.0482,-0.0499,-0.05,-0.0499,-0.05,-0.048,-0.0464,-0.041,-0.0388,-0.0334,-0.0289,-0.0208,-0.0191,-0.0059,-0.0096,-0.0029,0.0025,0.003,0.0028,0.0028,0.0036,0.0077,0.0076,0.0074,0.0073,0.0072,0,-0.0497,-0.0505,-0.0525,-0.0525,-0.0521,-0.0523,-0.0517,-0.0478,-0.0464,-0.0407,-0.0392,-0.0295,-0.025,-0.0152,-0.0041,-0.0049,0.0096,0.01,0.0151,0.015,0.0148,0.0143,0.0199,0.0199,0.0199,0.0198,0.0198,0,-0.0513,-0.0529,-0.0545,-0.0557,-0.058,-0.056,-0.0568,-0.0545,-0.0507,-0.0486,-0.0413,-0.0371,-0.0238,-0.0142,-0.0044,0.0079,0.0098,0.016,0.0178,0.0136,0.0129,0.0154,0.0148,0.0202,0.0201,0.02,0.02,0,-0.0534,-0.0543,-0.0572,-0.0587,-0.0596,-0.0614,-0.0617,-0.0616,-0.0577,-0.0546,-0.0529,-0.042,-0.0294,-0.0163,0.0004,0.007,0.0191,0.0232,0.0172,0.0183,0.0214,0.0205,0.0297,0.0298,0.0298,0.0298,0.0298,0,-0.0544,-0.0563,-0.0607,-0.0635,-0.0648,-0.0672,-0.0687,-0.0658,-0.0648,-0.057,-0.0552,-0.043,-0.0345,-0.0123,0.0009,0.0192,0.0216,0.0268,0.0252,0.0219,0.0227,0.0219,0.021,0.0298,0.0299,0.0299,0.0299,0,-0.0563,-0.0586,-0.0614,-0.0678,-0.0712,-0.0739,-0.0752,-0.0745,-0.0695,-0.0664,-0.0552,-0.0428,-0.0287,-0.0118,0.0021,0.0153,0.0226,0.0271,0.0271,0.0257,0.0222,0.0227,0.0219,0.0299,0.0299,0.0299,0.0299,0,-0.058,-0.0611,-0.066,-0.071,-0.0762,-0.0788,-0.0788,-0.0754,-0.0729,-0.0629,-0.059,-0.0428,-0.0325,-0.0137,-0.0006,0.0116,0.0145,0.0174,0.018,0.0181,0.0115,0.0052,0.0102,0,0,0,0,0,-0.0589,-0.063,-0.0685,-0.0742,-0.0795,-0.082,-0.0822,-0.0806,-0.0754,-0.0679,-0.0627,-0.0487,-0.0273,-0.0177,-0.0055,-0.002,0.0147,0.0123,0.0178,0.0303,0.0302,0.0243,0,0,0,0,0,0,-0.0598,-0.0656,-0.0687,-0.0758,-0.0802,-0.0849,-0.085,-0.0813,-0.0755,-0.0685,-0.0565,-0.0482,-0.0273,-0.0347,-0.0063,-0.0025,0.0022,0.023,0.0232,0.0303,0.0303,0.0302,0.0241,0,0,0,0,0]}]]